KKS-1 (KISEKI)

Last updated on Fri Dec 19 2025 00:03:11 GMT+0000 (Coordinated Universal Time)

1 33499U 09002H 25352.47932400 .00001355 00000+0 17583-3 0 9995 2 33499 98.1182 267.1593 0008499 146.8954 213.2792 14.82453506909416
UTC large
Height (km)
Speed (km/s)
/
Latitude / Longitude
Inclination (degrees)
Orbital Period (minutes)
Azimuth
Elevation
Range (km)
Doppler Factor

Next 0 passes for location: London (51.5072 / 0.1276)

Sorry there are no passes over London.